Location: Beddau
(51.5575°N, 3.3561°W)
Time: 12:32:05
(UTC+00:00)

Cosmos 2322 Rocket - Pass Details

Date: 03 March 2021
Orbit: 832 x 852 km, 71.0° (Epoch: 10 April)

Event Time Altitude Azimuth Distance (km) Brightness Sun altitude
Rises 19:07:05 0° 202° (SSW) 3,365 5.6 -11.6°
Reaches altitude 10° 19:09:30 10° 201° (SSW) 2,436 4.8 -12.0°
Maximum altitude 19:15:04 76° 117° (ESE) 864 2.1 -12.8°
Drops below altitude 10° 19:20:42 10° 33° (NNE) 2,459 4.4 -13.7°
Sets 19:23:09 0° 32° (NNE) 3,400 5.1 -14.1°
